ECMWFNIL_700_spd_000.txt.gz
Wind_Speed
27 26 25 25 25 26 26 24 23 22 23 24 27 28 30 31 32 34 34 35 36 38 39 40 40 40 40 41 42 44 44 45 45 47 47 46 43 42 46 49 50 50
28 27 27 27 27 27 27 28 27 26 25 25 26 29 30 32 33 34 35 36 37 38 39 40 41 41 40 40 40 42 43 44 44 46 47 47 43 43 46 48 47 47
28 27 28 29 29 28 28 29 29 30 29 28 28 29 30 32 33 34 35 36 37 38 38 40 41 42 42 41 40 41 41 42 43 44 46 47 47 47 48 47 48 48
28 28 28 29 30 30 30 30 31 32 32 32 32 31 31 32 33 35 36 36 37 38 38 39 40 41 42 42 41 41 41 41 41 42 45 47 48 48 48 48 49 49
28 28 29 30 31 32 32 32 33 33 34 35 35 35 34 34 33 34 35 36 37 38 38 39 40 41 42 43 43 43 42 41 40 41 42 45 46 47 49 49 49 49
29 29 30 31 32 33 34 34 35 36 36 37 37 37 37 36 36 35 35 36 37 38 39 40 40 41 42 43 44 45 44 42 41 41 41 42 43 45 48 49 49 50
30 31 31 32 33 33 34 36 37 39 39 39 39 39 39 38 38 37 36 36 37 39 40 40 41 42 43 44 45 46 46 45 43 42 42 41 42 43 46 49 51 50
31 31 32 33 33 34 35 37 39 41 42 42 41 40 39 39 38 38 37 36 36 38 40 41 42 43 44 45 46 47 47 47 45 44 43 42 42 42 44 47 51 51
32 32 32 33 33 35 36 38 40 41 43 43 42 40 38 37 37 36 36 36 35 37 40 42 43 45 46 47 48 48 48 48 48 46 44 43 42 42 42 44 49 51
33 33 33 33 34 36 37 39 40 41 42 41 40 39 37 35 34 34 34 35 34 34 38 42 44 46 47 48 49 50 50 50 50 48 47 45 43 42 41 42 45 50
33 33 33 34 35 37 38 39 40 40 38 37 37 37 36 35 34 33 32 33 33 33 35 40 44 46 48 49 50 51 52 52 52 51 50 48 46 43 42 42 43 47
33 34 34 35 37 38 38 39 39 37 35 35 35 36 35 35 35 34 33 32 32 32 34 38 43 46 48 49 51 52 52 53 53 53 52 51 49 47 45 44 43 44
34 34 36 37 38 38 38 38 37 35 34 34 36 36 36 36 36 35 34 33 32 32 33 36 40 44 48 49 50 51 52 52 53 53 54 53 52 51 48 46 45 45
35 36 37 38 38 38 38 37 35 34 34 36 37 38 37 37 37 37 36 35 35 34 34 35 38 41 45 48 49 50 51 51 52 53 54 54 54 53 51 49 48 46
37 38 39 39 38 37 36 35 34 34 35 37 38 38 38 37 37 38 38 38 38 37 37 37 38 40 42 44 47 49 50 50 50 52 53 54 55 54 53 52 50 48
38 39 39 39 38 37 36 35 34 35 36 37 38 38 38 38 38 38 40 40 41 41 41 41 41 41 41 42 44 46 49 51 51 51 53 54 55 55 53 53 52 50
38 39 39 39 39 38 36 35 35 36 37 37 38 38 38 38 39 40 41 42 43 44 44 44 44 44 43 43 44 45 47 51 52 52 52 54 55 54 53 53 52 52
38 38 39 39 39 38 37 36 36 36 37 38 38 39 39 40 41 42 42 43 45 46 47 47 47 47 46 45 46 46 47 50 53 53 53 54 55 54 53 52 52 52
37 38 39 39 39 38 37 36 36 37 37 38 39 40 41 42 42 42 43 44 46 49 51 52 52 51 49 47 46 47 48 50 53 54 54 54 55 54 52 51 52 52
38 39 40 40 38 37 36 36 36 36 37 38 40 41 42 43 43 44 44 46 49 51 54 55 55 54 52 49 48 47 48 51 53 54 55 55 55 53 52 51 51 51
39 40 39 38 37 36 35 35 35 36 37 38 39 41 42 43 44 46 48 50 53 54 55 55 56 55 54 51 49 48 48 50 53 55 56 56 55 54 52 51 51 50
39 39 37 36 35 34 34 34 34 35 36 37 38 40 42 44 46 49 52 54 56 56 55 55 54 53 52 50 47 47 48 50 53 56 57 57 56 55 52 51 51 50
38 37 35 34 33 32 32 32 33 34 35 36 38 40 42 45 49 52 54 56 56 54 53 52 51 49 48 47 45 45 48 50 53 56 58 58 56 55 53 52 51 51
37 35 33 33 32 31 31 31 32 34 36 37 39 41 44 47 51 53 55 54 52 49 47 49 49 46 45 44 42 44 47 50 52 54 56 57 56 55 54 54 53 52
35 33 32 31 30 30 30 31 32 34 36 37 40 43 47 49 51 53 52 49 45 42 43 46 46 44 43 41 39 42 46 49 50 52 54 55 55 55 56 56 55 55
33 32 31 30 30 30 30 30 32 34 36 38 41 45 47 48 48 47 45 40 37 38 41 44 43 41 39 38 38 41 45 47 48 49 52 53 55 56 57 57 57 56

ECMWFNIL_700_spd_003.txt.gz
Wind_Speed
27 27 27 26 25 23 22 22 21 21 20 20 20 20 21 22 24 26 29 31 33 34 36 38 39 38 38 37 36 36 37 38 38 40 43 45 46 46 45 45 46 48
29 29 28 26 25 24 23 22 22 21 22 22 22 23 23 23 23 25 27 29 31 33 35 37 39 39 40 39 38 37 37 37 37 38 40 42 45 46 46 46 46 47
28 28 27 26 25 24 23 23 23 23 23 24 24 25 25 26 26 26 26 27 29 31 34 36 37 38 40 40 41 40 38 38 37 37 39 41 42 44 46 46 46 46
28 27 26 26 25 24 24 24 24 25 25 26 27 27 28 28 29 29 29 29 29 30 32 34 35 37 38 39 40 41 41 39 38 37 38 39 40 42 43 45 46 46
27 27 26 26 25 25 25 26 26 27 28 28 29 29 30 31 31 32 33 32 31 31 32 33 34 35 37 38 39 40 41 41 39 38 38 38 38 40 41 43 45 46
28 27 27 27 27 27 27 28 29 29 30 31 31 31 32 33 33 34 35 35 34 33 33 33 34 35 36 37 39 39 40 40 40 40 40 39 38 38 40 40 43 45
29 28 28 29 29 29 29 29 30 31 32 33 34 34 34 35 35 35 36 36 35 35 34 34 35 35 36 37 39 40 40 40 40 40 41 41 39 39 40 39 40 43
29 29 29 30 30 31 31 31 32 33 34 35 36 36 36 37 36 35 36 37 36 35 35 35 35 35 36 38 39 41 41 41 41 41 42 42 41 41 40 39 39 40
30 30 31 31 32 32 32 32 33 34 35 36 38 38 38 38 37 36 36 37 37 36 35 35 35 35 36 37 39 41 42 44 44 43 43 43 43 42 41 40 41 41
31 32 32 33 32 33 33 33 34 35 36 37 39 39 40 39 39 38 37 37 37 36 35 34 34 35 35 36 38 40 42 45 46 46 46 45 44 44 43 42 42 42
32 33 33 33 33 33 34 34 35 36 37 38 39 40 41 40 40 39 38 37 36 36 35 34 34 35 36 36 36 38 41 44 47 48 48 48 47 46 45 45 44 44
33 33 33 34 34 34 35 35 36 37 38 40 41 41 42 41 41 41 40 38 37 36 37 36 36 36 36 37 36 36 39 42 46 49 50 50 50 49 48 47 46 46
34 33 34 34 34 36 37 37 38 39 40 41 42 42 42 42 42 41 41 40 39 38 38 38 38 38 38 37 37 36 37 39 43 47 50 52 52 52 51 50 49 48
34 34 34 35 36 37 39 39 40 41 42 43 43 43 42 42 42 42 41 41 41 40 40 40 41 41 40 38 37 36 36 37 39 43 47 51 53 54 53 53 52 50
34 35 35 37 38 39 40 41 42 43 43 43 43 42 42 42 42 42 42 42 42 42 42 42 43 42 41 39 37 36 37 37 38 40 43 47 50 53 55 55 54 53
34 36 37 38 39 40 41 42 42 43 43 43 42 42 42 42 42 42 42 42 43 43 44 44 44 43 42 39 38 38 38 39 40 41 42 43 46 50 54 55 56 55
34 36 37 38 39 40 41 42 42 42 42 41 41 41 41 41 41 41 41 42 43 44 45 45 45 44 42 40 39 39 39 40 41 42 43 45 46 48 51 53 55 56
34 35 36 38 39 40 40 41 42 42 42 41 41 40 39 39 39 39 40 41 43 44 45 45 46 45 43 42 41 41 40 41 42 43 45 47 48 49 51 52 53 55
33 34 36 37 39 40 40 41 42 42 42 41 39 38 37 37 37 38 39 40 41 43 44 45 46 46 45 45 44 43 43 44 45 46 48 49 50 51 53 54 54 54
33 34 36 38 39 40 40 41 41 41 40 39 37 35 35 35 36 36 37 38 40 42 43 45 46 47 47 47 48 48 47 48 49 49 51 52 53 53 54 55 56 55
33 34 36 37 39 40 41 41 42 40 38 35 34 34 35 35 35 36 37 38 40 42 44 46 46 47 48 50 51 51 52 53 54 55 55 55 56 56 55 56 58 58
33 34 36 38 40 41 41 42 41 39 36 34 34 34 35 35 36 37 38 40 41 43 45 47 48 49 51 52 54 55 56 58 59 59 59 58 58 58 57 57 57 59
33 35 37 39 42 42 42 42 40 37 34 33 34 34 35 35 36 37 39 41 43 46 49 51 52 53 54 55 57 58 60 61 62 62 61 60 60 60 59 59 58 59
33 36 38 40 42 43 43 42 38 35 34 33 34 35 35 36 37 39 41 44 46 49 52 55 55 55 55 55 55 56 58 59 59 60 59 59 60 61 61 60 59 59
34 37 39 40 42 43 43 40 37 35 34 33 35 35 36 36 38 40 43 46 49 52 55 55 54 51 47 46 45 45 47 49 50 52 54 55 57 59 61 60 59 59
36 38 40 41 42 43 42 39 36 35 34 34 35 36 36 37 39 42 45 48 51 54 54 51 47 43 40 38 38 38 40 43 45 47 50 52 54 57 58 58 58 59

ECMWFNIL_700_spd_006.txt.gz
Wind_Speed
21 21 21 22 22 22 22 22 22 22 21 20 20 20 21 21 21 20 19 20 20 22 23 24 25 26 27 27 27 29 30 31 31 30 31 33 35 36 37 38 37 36
21 22 22 22 23 23 23 23 23 22 22 21 21 21 22 22 23 22 22 21 21 21 22 23 24 26 28 29 29 29 29 30 31 31 31 32 33 34 35 38 38 38
21 22 23 23 23 23 22 22 23 22 22 22 22 22 23 24 24 24 24 24 25 25 25 24 24 25 28 30 31 31 30 30 30 30 31 31 32 33 33 35 37 39
21 22 23 23 23 23 22 22 22 22 22 23 23 24 25 26 26 26 26 27 27 28 28 28 27 27 28 29 31 32 32 32 31 30 31 31 31 32 32 33 35 38
21 22 23 23 23 23 23 23 23 23 24 24 25 26 27 28 28 28 28 29 29 30 31 31 30 30 30 30 31 32 33 33 33 32 32 32 31 32 32 32 33 35
22 23 24 24 24 24 24 24 25 26 26 26 27 28 28 29 30 30 30 30 31 31 32 33 32 32 32 32 32 32 32 33 33 34 34 34 32 32 33 33 33 34
23 24 25 25 25 25 25 26 27 28 28 28 29 29 30 31 31 31 31 31 31 31 32 33 34 33 33 32 32 32 32 32 33 34 35 36 34 34 33 33 34 34
25 25 25 25 25 25 26 27 28 28 29 29 29 30 31 31 31 32 32 32 31 31 32 33 34 33 33 33 33 33 33 33 33 34 35 36 36 36 35 35 35 35
26 26 26 26 25 25 26 27 28 29 29 29 30 30 31 32 32 32 32 33 32 32 32 32 33 33 33 33 33 33 33 32 33 34 35 36 37 37 37 37 37 37
27 27 26 26 26 26 27 28 28 29 29 30 30 31 31 33 34 34 34 34 34 33 33 33 33 33 33 34 33 33 33 32 32 33 34 35 36 37 38 39 39 39
27 27 27 27 27 27 28 29 30 30 30 31 31 32 33 34 35 36 37 37 36 35 34 34 33 33 34 34 34 34 34 33 33 33 33 34 35 37 39 40 42 42
27 27 27 28 28 28 29 29 30 31 31 32 33 34 35 36 37 38 38 39 39 38 36 35 34 34 34 35 35 35 35 35 35 35 34 35 35 36 37 40 42 44
27 28 28 29 29 29 29 30 31 32 33 34 35 36 37 38 39 40 40 41 40 40 39 37 36 36 35 36 36 37 37 37 37 37 37 36 36 36 37 38 41 44
28 29 29 30 29 29 30 31 32 33 34 35 37 38 40 40 41 41 42 42 41 40 40 39 38 38 37 37 38 38 39 39 39 39 39 39 38 37 37 37 39 41
30 30 30 30 30 30 31 32 33 34 35 37 38 39 41 41 42 43 42 42 41 41 41 40 40 39 39 39 39 39 40 41 41 41 41 41 41 40 39 38 37 38
30 31 31 31 30 31 32 33 34 35 35 37 39 40 42 42 43 43 42 42 41 41 41 41 41 40 39 38 38 39 39 40 41 42 43 43 43 43 42 40 38 38
31 31 30 30 31 32 33 34 34 35 36 37 39 41 42 43 43 42 41 41 41 40 40 40 40 39 38 37 37 38 38 39 41 42 43 44 44 45 44 43 41 40
30 30 30 30 32 32 33 34 34 35 37 38 39 41 42 42 42 41 41 40 39 39 38 38 37 36 36 36 36 37 38 39 40 41 42 43 45 45 46 45 44 43
29 29 30 31 32 32 33 34 35 36 37 38 40 41 42 42 41 40 40 39 38 37 36 36 35 35 35 36 37 37 38 40 41 41 42 43 44 46 47 48 47 46
28 29 30 30 31 32 33 34 35 36 37 39 40 42 41 41 40 39 38 37 36 35 35 35 35 35 35 36 37 38 39 41 42 44 44 45 46 47 48 50 50 50
28 29 29 30 31 32 33 34 35 36 38 39 41 42 41 40 40 39 38 36 35 35 35 35 35 35 37 37 38 39 40 42 45 46 48 49 50 50 51 52 52 53
27 27 28 29 30 31 32 34 36 38 39 40 41 42 41 40 39 38 37 36 36 36 36 37 36 37 38 39 40 42 44 46 48 49 51 52 53 54 55 55 55 56
24 25 27 29 29 31 33 35 37 39 40 41 42 42 40 39 38 37 37 37 37 37 38 39 39 39 40 42 44 46 48 50 51 53 54 55 56 57 58 59 59 59
22 23 26 28 29 31 34 36 38 39 40 42 42 41 39 38 37 37 37 37 38 39 39 41 41 42 43 45 47 49 51 53 54 56 57 57 56 56 57 59 61 62
22 24 26 28 30 32 35 37 39 40 41 41 40 38 37 37 37 37 37 38 39 39 41 42 43 44 46 48 50 52 53 55 56 57 57 55 53 51 52 54 57 59
23 25 27 29 31 34 36 38 39 39 39 38 36 36 36 36 36 37 38 38 39 40 41 43 45 47 48 50 52 53 54 56 57 56 53 51 49 48 47 48 49 52

ECMWFNIL_700_spd_012.txt.gz
Wind_Speed
17 17 17 17 18 17 16 15 16 16 15 15 14 14 13 13 13 14 14 15 16 16 16 16 16 15 15 15 14 14 15 16 16 17 17 17 19 20 21 22 23 25
17 17 17 18 17 17 17 16 16 16 16 16 15 15 14 14 14 14 13 14 14 15 16 17 17 17 18 18 17 17 18 18 19 20 20 20 20 21 22 22 23 24
18 17 17 17 17 17 17 17 16 16 16 16 16 16 16 16 15 14 14 14 14 15 17 17 18 19 19 20 20 21 21 22 23 23 23 23 23 23 23 24 24 25
18 18 17 17 17 17 18 17 17 17 18 18 18 18 18 18 18 17 16 16 16 17 17 18 19 20 21 21 21 21 22 23 24 25 25 25 26 26 26 26 26 26
18 18 17 17 18 18 18 18 18 18 18 19 19 19 19 20 20 20 19 19 19 19 19 20 20 21 21 21 21 22 22 23 23 24 24 25 27 28 28 29 28 28
19 18 17 17 18 19 19 19 19 19 19 19 19 19 20 20 21 21 21 21 21 21 21 21 21 21 22 22 22 22 23 24 25 25 25 25 26 27 28 30 30 29
20 18 18 17 19 20 20 21 20 20 19 19 19 20 20 20 21 22 22 22 22 22 22 22 22 22 23 23 23 23 24 25 27 28 28 27 27 28 28 30 31 31
19 18 18 18 19 21 22 22 22 21 20 19 19 20 20 21 22 22 23 23 23 23 23 22 22 22 23 23 24 24 25 26 27 29 30 30 30 30 30 31 32 32
18 18 19 20 22 23 23 23 23 22 21 20 20 20 21 21 23 23 24 23 23 23 23 23 24 24 24 25 25 26 26 27 29 30 31 31 32 32 33 34 34 34
20 20 21 23 24 25 24 24 24 23 22 21 21 21 22 23 24 24 24 24 24 24 25 25 26 26 27 27 28 28 29 30 31 32 32 33 33 34 35 35 36 36
24 24 24 24 26 26 26 26 26 25 24 23 22 23 24 24 25 25 25 25 25 26 26 27 27 28 29 30 30 31 32 32 33 34 34 35 35 35 36 37 37 38
27 27 26 26 26 26 26 27 27 27 26 25 25 25 26 26 26 26 26 26 26 27 27 28 29 30 31 32 32 33 34 34 35 35 36 36 36 36 37 38 39 39
30 29 28 27 27 26 26 27 28 28 27 27 27 27 28 28 28 27 27 27 28 28 29 29 30 31 32 33 33 34 35 36 37 38 39 39 38 38 38 39 40 40
32 31 30 28 28 27 27 28 29 29 29 28 28 29 30 30 30 29 29 29 29 30 30 31 31 32 33 34 35 36 37 38 39 40 41 41 41 40 40 40 40 41
35 34 31 29 28 28 28 29 30 30 30 30 30 31 31 32 31 31 31 30 31 31 31 32 33 34 35 36 37 38 39 40 41 41 41 42 42 42 41 41 41 41
36 34 32 29 27 27 28 30 31 31 31 31 32 32 33 33 33 32 32 32 33 33 33 34 35 36 37 37 38 39 40 40 41 41 41 42 42 42 42 41 42 42
36 33 31 28 26 27 29 31 32 32 32 32 33 33 34 34 34 33 34 34 35 35 36 36 38 38 39 39 39 40 40 41 41 42 42 43 43 43 43 42 43 43
37 36 34 28 26 27 29 31 32 33 33 33 34 34 35 34 34 35 36 36 37 37 38 39 40 40 40 40 40 41 41 42 43 43 44 44 45 45 45 44 44 44
39 42 40 32 27 27 29 31 33 33 34 35 35 35 35 35 36 36 37 38 38 39 39 41 42 42 42 42 42 42 43 43 44 44 45 45 46 46 46 46 45 45
41 46 45 38 31 28 29 30 32 33 34 35 35 36 36 36 37 37 38 39 39 40 41 42 42 43 43 43 43 43 43 44 45 46 46 46 46 46 47 47 47 46
42 45 44 40 33 28 28 30 32 33 35 35 35 36 36 36 37 37 39 40 41 42 42 42 43 43 43 43 43 43 44 45 46 47 47 47 47 46 46 46 47 47
40 41 38 34 30 27 28 30 31 33 34 35 35 35 35 36 37 38 39 41 42 42 42 42 43 43 43 44 44 44 45 46 47 47 47 47 47 46 46 46 46 46
40 41 33 27 26 26 27 29 31 32 34 34 34 34 34 35 37 39 40 41 42 42 42 42 43 43 44 44 44 45 46 47 47 48 48 48 47 46 45 45 46 46
41 41 33 26 25 25 26 29 30 31 32 32 32 33 34 36 38 39 40 41 41 41 42 43 43 43 44 44 44 44 45 46 47 48 49 49 48 47 46 46 47 47
37 35 29 25 24 24 26 29 30 31 31 31 32 33 35 37 38 39 39 39 40 40 41 43 43 43 43 43 44 44 45 46 48 48 49 49 49 49 48 48 48 49
36 30 24 22 23 24 27 29 29 29 30 31 32 33 34 36 37 38 38 39 39 40 41 42 42 43 42 42 43 44 45 47 48 49 50 50 50 51 51 51 51 51

ECMWFNIL_700_spd_015.txt.gz
Wind_Speed
14 14 13 13 14 14 14 14 13 13 12 12 11 11 11 11 12 13 14 15 15 16 16 16 16 16 16 16 15 15 16 16 17 18 18 19 19 19 19 19 19 20
15 15 14 14 14 14 14 13 13 13 13 13 12 12 12 12 12 12 13 13 14 15 16 17 18 18 18 18 18 18 18 18 19 20 20 20 21 21 22 22 22 22
15 16 14 14 14 15 14 13 13 14 15 14 14 13 13 13 13 13 13 13 14 15 15 16 17 17 18 18 19 20 20 21 22 22 23 23 23 24 24 24 25 25
15 16 15 14 15 15 14 13 14 15 16 16 15 14 14 14 14 14 14 15 15 15 15 16 16 17 17 18 19 20 20 21 22 23 24 26 26 26 26 26 26 27
16 17 17 16 16 16 14 13 14 15 16 17 17 17 16 15 15 15 16 16 16 16 16 16 17 17 18 18 19 19 20 20 21 22 23 24 26 27 27 27 27 28
17 19 19 18 17 17 15 14 14 16 18 19 19 19 18 17 17 17 17 17 17 18 17 17 17 17 18 18 19 19 20 20 20 21 22 22 23 25 26 26 27 27
17 19 20 19 19 18 16 15 16 17 19 20 21 21 20 20 19 19 19 19 19 19 19 18 18 18 18 18 19 19 19 20 20 20 21 22 23 24 25 26 26 27
16 19 20 20 20 19 17 17 18 20 20 21 22 23 23 22 21 22 21 22 22 21 21 20 20 20 19 19 19 20 20 20 20 20 21 22 23 24 25 27 27 28
15 17 18 18 18 18 18 19 20 22 22 22 23 24 24 24 23 24 24 24 24 24 23 23 23 22 22 21 21 21 22 22 22 23 23 24 25 26 27 28 29 29
17 17 18 19 19 19 20 21 22 23 23 23 24 25 25 26 26 25 26 26 26 26 26 26 26 25 25 24 24 24 24 24 25 25 26 26 27 28 29 29 30 30
23 21 21 21 22 22 23 23 24 25 25 25 26 26 27 27 27 28 28 28 28 28 28 28 28 28 28 27 27 26 27 27 27 28 28 29 29 30 30 31 31 32
28 26 25 25 25 25 26 26 27 27 27 27 27 27 28 29 30 30 30 30 29 29 29 30 30 30 30 30 29 29 30 30 30 31 31 31 31 31 32 32 33 34
31 29 28 28 29 29 29 29 29 29 29 29 29 28 29 30 31 32 32 32 31 31 31 31 31 31 31 32 32 32 32 33 33 33 33 33 34 34 34 35 35 36
32 31 31 32 34 34 33 33 32 31 32 32 31 30 30 31 32 33 34 34 34 33 33 33 33 33 33 33 34 34 35 35 35 35 36 36 36 36 37 37 37 37
33 33 34 36 38 39 38 37 35 34 34 34 32 31 31 32 33 34 35 35 36 35 35 35 35 34 35 35 35 36 36 36 37 37 38 39 40 40 39 39 38 38
36 36 36 37 42 47 46 41 38 37 36 35 34 33 33 33 34 36 36 37 37 37 37 37 37 37 37 36 36 36 37 37 38 39 41 42 42 42 41 40 40 40
39 40 42 43 48 52 49 42 39 37 35 34 35 35 34 35 35 37 37 37 37 38 38 39 39 39 38 38 37 37 38 39 40 41 42 43 44 44 43 42 42 42
43 43 45 47 49 51 50 43 38 35 35 35 37 37 36 36 37 36 37 37 38 39 40 40 40 39 39 39 39 39 40 41 42 42 43 43 44 45 45 45 44 44
43 44 45 45 44 45 46 43 39 36 37 38 38 39 38 37 36 36 37 38 39 41 41 41 41 40 40 41 41 41 42 42 43 43 44 44 45 46 47 47 46 46
41 41 42 43 41 38 38 40 40 39 40 41 41 41 38 36 36 37 38 40 41 42 42 42 42 41 41 42 42 43 43 44 44 45 45 46 46 47 48 48 48 48
43 41 40 41 39 36 35 37 40 41 43 45 45 42 38 37 37 38 39 41 42 42 42 42 42 42 42 43 44 44 45 45 46 47 47 47 47 48 49 49 49 49
45 44 43 42 41 39 38 38 40 44 47 48 46 42 39 38 38 39 40 41 41 42 42 43 42 42 43 44 45 45 46 47 47 48 48 48 49 49 49 50 50 51
45 45 44 43 43 41 39 39 42 46 48 48 45 42 39 38 38 39 39 40 41 42 42 42 42 43 44 45 45 46 47 48 48 49 50 50 50 50 51 51 52 52
43 43 42 42 43 41 39 39 43 45 47 47 44 40 38 38 39 38 38 39 41 41 42 42 43 44 44 44 45 46 47 48 50 51 51 52 52 52 52 52 52 52
41 41 40 40 43 43 41 41 43 44 44 42 39 37 38 39 38 38 38 39 40 40 41 42 43 44 44 44 45 46 47 49 50 51 52 52 52 53 53 53 52 52
40 38 37 40 44 46 45 43 41 40 39 38 36 36 37 37 37 37 37 38 38 39 40 42 43 44 44 44 44 45 46 48 49 51 52 52 52 53 53 53 52 52

ECMWFNIL_700_spd_021.txt.gz
Wind_Speed
5 6 7 7 7 7 7 7 7 7 8 8 9 10 10 11 11 11 10 10 9 10 9 9 9 9 9 10 10 11 11 12 12 12 12 13 13 13 13 14 14 14
6 7 7 7 8 7 7 8 8 8 8 8 8 9 10 10 11 11 11 11 10 11 11 11 10 10 10 11 11 12 13 13 13 13 13 14 14 14 14 14 15 15
8 7 8 8 9 9 10 10 9 8 8 8 9 9 9 10 11 11 12 11 11 11 11 12 12 11 11 11 12 12 13 14 14 15 15 15 15 15 15 15 15 15
10 10 9 10 11 12 12 12 11 9 8 9 10 10 10 10 11 11 12 12 12 12 12 12 12 12 12 12 12 12 13 13 14 15 16 16 16 16 16 16 16 16
14 12 12 11 12 13 14 14 13 12 11 11 12 12 11 12 12 13 13 13 13 13 13 13 13 13 13 13 13 13 13 13 14 14 15 15 16 16 16 16 16 16
17 15 14 14 14 15 15 15 15 15 15 14 15 15 14 14 15 15 15 14 14 14 14 14 14 14 14 14 15 15 15 15 14 14 14 15 15 15 16 16 16 16
19 19 18 17 17 16 16 16 17 18 18 18 19 19 18 18 18 18 18 17 15 15 15 15 15 15 15 15 16 16 16 16 16 16 15 15 16 16 16 16 16 17
22 22 21 21 20 18 17 16 17 18 19 21 22 23 23 23 22 22 22 20 18 17 17 17 17 17 17 17 17 17 17 17 18 18 17 17 17 17 17 18 18 19
26 26 25 24 24 21 19 18 18 19 20 22 23 25 27 27 26 26 26 25 23 21 20 19 18 18 18 18 19 19 19 19 18 19 19 19 19 19 20 20 20 21
30 29 27 27 27 25 23 21 21 21 22 22 24 26 28 30 30 30 30 29 27 26 24 23 22 20 20 20 20 21 21 21 20 20 20 20 21 21 22 23 23 23
30 29 29 29 29 28 27 25 23 24 24 25 26 28 30 31 32 32 32 32 31 30 29 28 27 25 23 22 22 23 23 23 23 22 22 22 22 23 24 24 25 26
30 29 30 30 30 30 29 29 28 27 29 30 30 32 33 32 33 33 32 32 33 33 32 32 31 29 27 26 26 26 25 25 25 25 25 25 24 25 25 26 27 28
32 30 30 31 31 31 31 32 32 32 33 34 34 36 36 34 34 35 34 34 34 34 35 35 34 33 31 30 30 30 30 29 28 28 28 28 28 27 27 28 28 29
33 33 32 33 33 33 34 35 35 36 38 38 38 39 39 37 37 37 37 37 35 35 36 36 35 35 34 34 34 34 34 34 33 31 30 30 30 30 30 30 30 30
35 36 36 36 36 37 37 37 38 39 40 41 42 41 39 40 40 38 38 41 41 40 39 36 35 35 36 37 38 38 38 38 37 36 35 34 33 33 33 33 33 33
38 38 38 38 39 39 39 39 40 41 42 42 43 42 39 39 39 37 36 38 38 38 36 35 36 36 37 39 41 41 41 41 39 39 39 39 38 36 36 36 37 36
39 40 40 40 40 40 41 42 42 43 44 44 44 44 42 41 40 38 36 35 32 30 30 32 34 36 38 40 42 43 43 42 40 40 42 42 41 40 39 39 40 40
40 40 40 41 41 41 42 43 44 45 45 44 43 42 42 42 41 39 37 36 34 32 30 31 33 35 39 41 42 44 45 43 41 42 43 44 44 44 43 43 43 43
40 41 41 41 42 42 43 43 44 44 44 43 42 40 40 40 40 39 38 37 36 34 32 32 34 37 40 42 43 45 46 45 44 43 45 46 47 46 46 46 45 45
38 39 40 41 42 42 43 44 45 45 44 43 43 42 41 40 38 38 38 39 38 36 34 34 36 38 40 41 43 45 46 47 46 46 47 48 48 48 48 48 48 47
37 38 39 40 40 41 42 42 43 44 44 44 45 44 43 42 40 39 39 40 39 39 38 37 38 39 39 39 42 44 46 47 48 49 49 50 50 49 49 50 51 50
37 39 40 41 41 41 41 42 42 42 43 44 44 45 45 44 42 40 40 40 40 40 40 39 39 38 38 39 41 44 45 47 48 50 51 51 51 51 51 51 52 52
38 39 40 41 42 42 43 43 43 43 43 43 43 43 43 42 40 39 38 38 38 39 39 39 39 38 38 40 42 43 45 46 47 49 50 51 51 51 52 52 53 53
39 40 40 41 41 42 42 42 42 42 42 42 41 40 39 38 37 35 34 34 37 39 39 40 39 38 39 40 42 44 45 45 46 49 51 51 51 52 52 53 53 53
41 41 42 41 41 41 41 41 41 40 39 38 37 36 36 35 33 32 32 35 39 41 41 40 39 39 40 41 43 44 43 44 46 50 51 52 52 52 53 53 54 53
40 40 41 40 40 39 39 39 39 39 37 36 34 33 33 32 31 31 34 37 41 41 41 40 39 40 41 42 43 43 42 44 48 50 51 51 52 52 52 53 52 52

ECMWFNIL_700_spd_024.txt.gz
Wind_Speed
7 7 6 7 7 7 6 5 5 5 4 3 3 4 5 6 6 7 7 6 6 4 3 2 3 3 4 4 5 5 5 6 7 8 9 10 10 10 11 11 11 11
10 9 8 8 8 8 8 7 7 7 6 5 5 4 4 5 6 6 7 7 7 7 6 5 5 5 5 5 6 6 5 5 5 6 7 8 9 10 11 11 12 13
13 12 11 10 10 10 10 10 10 9 8 7 7 7 6 5 6 6 7 7 8 8 8 8 7 7 7 7 8 8 8 7 7 7 7 7 8 8 9 10 10 11
15 14 13 12 12 12 12 13 12 11 11 10 10 10 9 8 8 8 8 8 8 8 9 9 9 9 8 8 9 9 10 10 10 10 9 9 9 9 9 10 10 10
18 17 16 15 15 14 14 14 14 14 14 13 13 13 12 11 11 11 12 11 10 9 9 10 10 10 9 9 9 9 9 10 11 11 11 11 11 10 10 10 11 11
21 20 19 18 17 17 16 16 16 16 16 16 16 16 16 14 13 13 14 15 14 13 11 11 11 11 11 10 10 9 10 10 10 11 11 11 11 12 12 12 12 12
24 23 23 21 21 20 19 18 18 18 18 18 19 19 19 18 17 16 17 17 18 17 15 14 13 13 12 12 12 11 11 11 11 11 12 12 13 13 13 14 14 15
27 27 26 26 25 24 23 22 21 20 20 20 21 21 21 22 22 21 20 20 20 20 18 17 17 16 16 15 14 14 14 13 13 14 13 14 14 14 15 15 16 17
29 29 29 29 28 28 27 26 24 23 23 22 22 23 23 24 25 25 24 24 24 23 22 21 20 19 19 18 17 17 17 16 16 16 16 16 16 16 17 17 17 18
30 30 31 31 31 31 31 29 28 26 26 25 25 25 25 25 27 28 28 28 27 26 25 24 23 22 21 20 20 19 19 19 19 19 18 18 18 18 18 19 19 19
30 29 29 31 33 33 31 30 30 30 29 29 28 28 27 28 29 29 30 30 29 29 28 27 26 25 24 24 23 22 22 22 22 22 21 21 21 21 21 21 21 21
28 24 24 27 30 29 28 29 31 34 33 32 32 31 31 31 31 31 31 32 32 32 31 30 29 28 27 27 26 25 24 25 25 25 25 25 25 25 25 24 24 25
26 25 25 27 29 28 29 30 32 35 37 36 35 34 34 34 34 33 34 34 35 35 34 33 33 32 31 30 30 27 26 27 28 29 29 28 28 28 28 27 27 28
26 27 28 29 30 32 33 32 31 33 36 37 37 37 37 36 37 37 37 36 36 36 37 37 37 37 36 34 32 30 28 28 29 30 30 31 31 31 31 31 31 30
26 27 29 30 31 32 33 32 31 32 34 36 37 39 40 39 40 41 39 38 39 39 38 38 37 37 35 32 30 30 29 29 29 30 31 32 33 34 34 34 34 34
29 30 31 32 33 34 34 34 34 34 34 35 37 39 41 42 42 43 42 41 42 42 38 35 33 32 31 29 27 28 28 29 29 30 32 33 34 36 36 37 37 37
32 33 34 34 36 37 38 38 38 38 37 36 37 39 41 43 44 44 44 43 44 43 39 35 35 34 31 29 28 28 29 29 30 31 33 35 36 37 38 40 40 40
36 36 37 38 39 40 40 40 40 40 39 38 38 38 39 42 42 41 41 42 43 43 41 39 38 37 35 34 33 32 32 31 32 34 35 36 37 38 39 41 42 42
36 37 38 40 40 41 41 41 41 41 41 40 40 40 40 41 40 39 39 39 40 40 40 39 38 37 38 38 37 35 34 35 36 36 37 38 39 39 40 42 43 44
34 35 37 38 39 39 40 40 40 41 41 41 41 42 43 42 42 41 40 39 38 38 39 40 40 39 40 39 38 37 36 37 38 39 39 40 40 40 42 43 44 43
33 34 35 36 37 37 38 38 39 39 39 39 40 41 42 42 43 43 42 41 39 39 40 41 42 42 42 40 39 38 38 39 40 40 40 40 40 41 42 43 42 42
33 34 35 35 36 36 37 38 38 39 39 39 40 40 41 41 41 41 42 41 41 41 42 42 42 42 41 40 39 39 39 40 41 40 40 40 40 41 42 42 42 41
33 34 35 36 36 37 37 38 39 40 40 41 41 42 42 42 42 42 42 41 40 41 42 41 41 40 40 40 41 41 40 40 40 38 37 38 39 40 41 42 42 42
34 36 36 37 37 37 38 38 39 40 41 42 42 42 42 43 43 42 42 41 41 41 41 39 38 38 39 40 41 41 40 40 39 38 38 38 38 39 40 41 42 42
36 37 38 38 38 38 38 38 38 39 41 42 43 43 42 42 41 40 40 40 39 39 39 38 37 37 39 40 40 40 40 39 39 40 40 39 40 41 43 43 43 45
38 39 39 39 39 39 39 38 38 38 38 40 41 41 41 40 39 37 37 37 36 36 35 35 35 36 38 39 39 40 39 39 40 42 42 43 44 45 46 45 45 47

ECMWFNIL_700_spd_027.txt.gz
Wind_Speed
11 9 8 7 6 4 4 4 5 5 4 4 3 2 1 1 3 4 4 5 5 4 3 2 2 2 2 2 2 3 4 5 6 7 7 8 8 9 10 10 10 10
13 12 11 9 8 7 6 6 6 6 6 6 6 5 4 3 1 1 3 4 6 6 6 5 4 3 3 3 2 2 1 2 3 4 4 5 6 7 8 9 10 11
15 15 13 12 11 10 10 9 8 8 8 8 8 8 6 5 4 3 0 2 3 5 6 6 6 6 6 5 5 4 4 3 3 3 4 4 4 5 6 6 7 8
18 17 16 15 14 13 13 12 11 10 10 9 10 10 10 8 7 6 4 3 1 2 3 4 5 6 7 7 6 6 6 5 5 5 5 5 5 6 6 6 6 6
20 19 19 18 17 16 16 15 14 13 12 12 12 12 13 11 10 9 8 7 6 4 3 3 3 4 5 6 7 7 7 7 7 7 7 7 7 7 7 7 7 7
23 22 21 21 20 20 20 18 17 16 16 15 15 14 14 14 12 12 11 11 10 8 7 6 5 5 5 5 5 6 7 7 8 8 8 8 8 9 9 9 9 9
27 26 25 24 24 23 22 21 20 20 19 18 18 17 16 16 15 15 14 13 13 13 11 9 8 8 8 7 6 7 7 8 9 9 9 9 9 9 10 10 11 11
30 30 29 28 28 27 25 25 24 23 22 22 21 21 20 19 18 18 16 15 15 16 15 14 12 11 11 11 10 10 9 9 10 11 11 11 11 11 10 10 12 13
35 34 32 30 30 30 29 28 26 26 26 25 25 24 23 22 22 20 19 18 17 17 18 17 16 15 15 15 15 14 13 13 13 13 14 14 13 14 13 13 14 15
34 36 35 32 32 32 32 31 29 28 29 28 27 27 26 26 24 23 23 22 20 19 19 19 19 19 19 18 18 18 18 17 16 16 17 17 16 16 17 17 18 18
32 34 35 34 33 33 34 34 33 32 32 31 28 28 28 29 29 27 26 25 24 22 22 22 22 23 23 22 21 22 21 20 20 20 20 19 20 20 20 20 20 21
31 32 34 34 33 33 33 33 32 31 32 32 30 30 30 32 33 32 31 30 28 27 26 26 26 27 26 25 24 24 23 23 25 25 24 24 23 22 21 21 22 22
28 26 28 31 33 32 29 27 27 28 29 30 31 30 31 33 34 35 34 33 32 32 31 31 30 31 29 27 26 27 25 25 26 26 25 25 24 24 24 25 25 25
24 24 26 29 31 31 26 24 26 28 29 31 30 28 31 33 32 33 34 34 34 35 35 34 34 33 32 30 30 30 29 28 27 26 25 26 26 26 28 29 29 28
21 23 24 26 28 29 27 26 27 27 26 26 25 25 29 29 28 31 33 34 36 37 38 38 37 36 36 35 33 32 32 31 30 29 28 28 28 29 30 30 30 31
21 22 22 23 25 26 26 26 27 28 27 27 25 25 27 26 27 32 34 35 37 39 39 40 40 39 38 37 36 35 34 32 32 32 31 30 31 31 32 33 33 34
26 26 26 27 27 28 29 29 30 31 31 31 30 29 29 29 31 33 34 35 37 38 37 37 38 39 37 36 36 36 35 34 35 34 33 32 33 33 34 36 37 37
31 31 31 31 31 31 31 31 32 33 34 34 33 33 34 34 35 35 35 35 36 37 37 36 38 39 37 35 36 35 35 37 36 35 34 34 34 35 35 37 38 40
32 32 31 31 31 31 32 31 31 32 33 33 33 33 34 36 37 37 37 36 36 37 38 38 40 41 37 35 35 34 34 36 36 36 36 36 36 36 37 38 39 41
30 30 30 30 31 31 32 31 30 30 31 31 32 32 33 34 36 36 36 35 35 37 38 39 42 43 39 36 35 35 34 34 36 38 38 37 38 40 40 41 41 41
28 28 29 29 30 31 31 31 30 30 31 31 32 33 33 33 34 34 34 34 33 34 35 37 41 42 38 35 35 36 35 35 38 40 39 39 41 42 42 42 41 41
28 28 28 29 29 30 31 31 31 31 31 32 32 33 34 34 34 33 33 33 33 33 36 39 40 39 35 34 35 35 36 37 39 41 40 40 42 42 41 41 41 41
29 29 30 31 31 31 31 32 32 32 32 32 33 33 34 35 35 34 32 32 32 34 38 41 39 36 35 35 35 35 36 37 39 40 40 41 41 41 41 40 40 39
29 29 30 31 31 32 33 33 34 34 35 35 35 35 35 34 35 35 33 31 32 36 39 39 36 35 36 35 35 35 36 38 39 40 40 40 40 40 40 39 38 38
30 30 31 31 32 32 33 34 35 35 36 37 37 37 36 35 33 33 32 33 36 38 38 36 34 35 36 35 35 35 36 37 38 38 38 38 39 40 40 39 38 39
34 35 35 35 35 35 36 36 36 36 37 38 38 39 38 36 33 32 33 36 37 36 36 35 35 35 35 35 35 35 35 35 36 36 37 38 39 39 39 38 38 39

ECMWFNIL_700_spd_030.txt.gz
Wind_Speed
12 10 10 9 7 5 5 5 5 4 4 3 3 3 2 3 3 3 3 4 4 4 4 4 3 2 2 1 1 2 2 3 3 4 4 4 4 5 6 6 7 7
13 12 11 11 9 7 6 6 6 5 5 5 4 4 3 3 2 1 2 3 4 4 5 5 5 4 3 2 2 1 0 0 0 1 1 2 2 3 4 5 6 6
14 13 13 13 12 11 9 8 8 8 7 7 7 6 4 4 4 3 2 0 1 3 4 4 5 6 5 5 4 3 2 2 1 1 1 1 1 1 1 2 3 4
16 15 15 15 15 14 14 12 12 11 10 9 9 9 8 6 5 5 5 4 3 1 0 2 3 4 4 5 5 4 4 4 3 3 3 3 2 2 2 1 1 1
20 18 17 18 18 18 18 17 15 15 14 13 12 12 11 9 8 8 7 7 7 6 4 2 1 1 1 2 2 3 3 3 4 4 4 4 4 4 4 3 3 2
23 22 21 21 21 21 21 21 19 18 18 17 16 14 14 13 11 10 9 9 9 9 8 7 6 5 4 3 2 2 2 3 3 3 3 4 4 5 5 5 5 5
25 23 22 22 22 24 25 24 23 21 20 20 19 17 16 16 14 12 12 11 11 11 10 10 10 9 8 7 6 5 5 5 5 5 5 4 4 5 5 6 6 6
26 24 22 22 23 24 26 27 27 26 24 23 22 21 19 19 18 15 14 13 12 12 12 11 11 12 11 11 10 9 8 8 8 8 9 9 8 8 7 8 9 9
27 26 25 26 27 27 27 27 27 27 27 27 25 23 22 22 21 19 17 16 14 14 14 13 13 13 12 12 12 12 11 11 10 11 12 12 12 12 11 10 11 13
29 30 30 31 33 34 33 32 32 32 31 31 29 26 25 26 25 23 22 20 19 18 18 16 16 15 13 12 12 13 14 13 13 13 13 15 15 16 17 15 13 14
34 35 36 36 35 36 35 34 35 37 36 35 34 31 29 30 29 27 27 26 25 24 23 22 21 20 18 16 14 13 14 15 15 14 14 16 18 19 19 19 17 16
30 32 35 35 34 34 34 34 37 41 41 39 38 35 33 33 34 33 32 29 26 25 26 26 25 25 24 23 21 18 16 15 16 17 17 18 19 20 19 19 18 18
23 26 29 31 31 31 30 31 36 39 36 32 32 33 34 34 36 36 33 29 26 27 27 28 29 28 26 25 25 24 21 18 18 19 20 21 21 21 21 19 20 20
18 20 22 24 25 25 24 25 28 28 25 23 24 28 28 27 27 28 28 26 26 26 27 29 32 30 25 22 24 25 25 24 23 23 23 24 24 24 24 23 23 23
14 15 16 18 18 19 20 22 22 20 20 21 22 24 24 22 21 21 21 21 22 23 25 28 30 29 25 22 24 26 28 30 29 27 25 25 26 27 27 26 26 26
17 17 18 19 19 19 20 20 21 20 20 21 22 23 24 23 22 22 21 22 23 24 26 27 27 26 25 24 24 26 28 31 32 30 28 27 28 29 29 28 28 28
24 23 23 23 23 23 22 23 24 25 26 26 26 26 26 25 25 25 24 25 26 27 27 28 27 26 25 25 24 24 26 29 31 32 31 29 29 29 29 29 29 29
27 27 27 27 26 25 25 25 25 25 26 27 28 28 28 28 27 27 28 28 28 28 28 29 30 29 28 27 26 24 25 27 30 32 32 31 30 30 30 30 29 30
27 28 29 30 29 28 27 26 25 24 24 24 25 26 28 29 28 28 28 28 28 28 29 30 30 29 29 29 28 27 27 28 30 32 33 32 31 31 31 31 31 31
25 26 27 28 29 29 28 27 25 24 24 23 23 23 24 26 27 27 27 27 27 27 27 28 29 29 29 28 27 27 28 29 30 33 34 33 32 31 32 32 33 33
24 24 25 26 27 28 28 27 26 26 25 24 24 23 23 24 25 26 26 26 26 26 26 27 29 30 28 27 27 27 27 28 30 33 33 32 32 32 32 33 34 35
25 26 26 26 27 27 27 27 27 27 26 26 25 25 25 25 25 25 26 27 27 26 27 29 31 30 28 28 28 28 28 28 30 32 32 31 32 32 34 35 36 36
27 28 28 28 28 28 28 28 28 27 27 26 26 26 26 26 27 27 27 28 28 28 30 31 30 29 29 29 29 29 29 28 30 32 32 32 32 33 35 36 36 36
28 28 28 29 29 29 28 28 28 27 27 27 27 26 26 26 27 28 28 29 30 31 31 30 29 29 30 31 31 31 30 29 30 32 33 33 33 35 36 36 36 36
29 30 30 31 31 30 30 29 29 29 29 29 29 29 29 29 29 30 30 31 32 32 31 30 29 30 31 31 31 31 30 30 31 33 33 34 35 36 36 36 35 36
31 32 32 33 34 34 34 34 34 34 34 34 34 34 33 33 34 34 34 34 34 33 32 32 32 32 31 31 31 31 31 31 32 33 34 35 35 36 36 35 35 35

ECMWFNIL_700_spd_033.txt.gz
Wind_Speed
9 10 9 8 4 2 2 3 3 2 2 2 1 1 2 3 5 6 7 8 8 9 9 8 7 6 5 4 4 3 3 3 2 2 1 0 1 2 2 2 3 3
9 10 10 9 6 4 4 3 3 3 3 2 2 2 2 1 2 3 4 5 7 8 9 9 8 7 6 5 4 4 4 4 3 3 2 2 2 1 1 0 1 1
11 11 11 11 8 7 6 6 5 5 5 4 3 3 4 3 2 0 1 2 3 5 6 7 7 7 7 7 6 6 5 5 4 4 4 3 3 2 2 2 1 1
13 12 12 12 11 10 9 8 7 7 8 7 6 5 5 5 5 4 2 2 2 1 1 2 4 5 5 6 6 6 6 6 6 6 6 5 5 4 4 3 3 3
15 14 14 14 15 13 11 10 10 10 10 10 10 9 7 6 7 7 6 5 4 4 3 2 1 1 1 2 3 4 4 4 5 5 5 6 6 6 5 5 4 4
18 16 16 17 17 16 14 12 11 12 13 13 13 13 11 10 9 9 9 8 8 7 7 6 6 5 3 3 2 1 0 1 2 3 4 5 5 5 5 5 5 5
21 19 19 19 18 17 16 14 13 13 14 15 16 16 16 15 13 12 11 11 11 10 10 9 9 9 8 7 6 5 4 3 2 1 2 3 4 4 5 5 5 6
25 24 22 20 18 17 16 15 15 15 16 17 17 18 19 19 19 18 16 15 14 13 13 12 11 11 11 11 11 10 9 8 6 5 4 4 5 5 5 5 6 6
24 26 24 21 20 18 17 18 19 20 21 21 20 20 22 23 24 24 24 22 19 17 16 14 13 13 12 12 11 11 11 11 9 9 8 8 7 7 8 8 8 9
18 22 22 21 20 20 20 23 25 25 25 25 24 24 26 27 28 29 30 27 24 22 20 18 17 17 16 14 12 9 10 10 10 10 10 10 10 10 10 10 10 10
16 19 21 22 23 24 25 28 30 31 30 28 25 26 28 30 31 31 31 30 27 25 25 24 23 22 20 18 15 12 11 11 11 11 11 12 12 12 12 12 11 11
14 15 17 19 23 26 27 30 32 33 32 29 27 27 29 30 32 32 31 30 28 26 24 24 27 27 24 20 17 17 16 15 15 14 14 14 14 14 14 14 13 12
10 11 13 14 17 20 23 26 29 30 30 28 27 25 24 24 25 26 25 23 22 20 18 20 23 24 22 18 16 18 20 19 17 16 15 16 17 17 18 18 18 17
6 7 9 11 12 14 17 20 23 24 24 23 22 21 20 19 18 17 17 16 15 14 14 16 17 16 15 14 14 15 17 19 19 18 18 19 20 20 19 19 20 20
7 7 8 9 9 11 13 14 15 16 16 16 16 16 17 16 16 15 15 14 14 14 15 16 16 15 14 15 14 15 17 18 19 21 22 23 25 24 22 20 20 21
13 12 13 13 13 13 13 13 14 14 14 14 15 16 17 17 18 17 16 16 16 17 18 19 18 18 17 18 18 19 20 20 20 22 24 25 27 28 27 24 22 22
17 17 18 18 19 19 18 18 18 19 18 18 19 19 20 21 21 20 20 19 19 20 21 21 21 20 20 20 20 21 22 22 22 23 24 26 28 30 30 28 26 24
18 18 19 20 20 21 21 22 23 23 23 24 24 24 23 23 22 21 21 21 21 22 22 23 23 22 22 22 22 22 23 24 24 24 26 28 29 31 32 32 29 27
19 19 19 20 20 20 21 21 22 23 23 23 24 24 25 25 24 23 22 21 21 22 22 23 23 23 23 23 23 23 24 25 26 26 27 29 30 31 32 32 31 31
20 20 21 21 21 20 20 20 20 20 20 20 20 21 22 23 24 25 25 24 23 22 22 23 24 23 23 22 21 22 23 24 25 26 27 28 28 29 30 32 32 33
19 20 20 20 20 20 20 20 20 21 21 20 20 20 20 20 22 23 24 25 25 24 24 24 24 24 22 20 20 22 23 23 24 25 26 27 27 28 30 32 34 34
19 19 20 20 20 21 21 20 21 21 22 22 21 21 21 21 21 21 22 24 24 24 25 24 24 24 23 21 21 23 23 23 24 25 25 26 27 29 30 32 34 35
20 20 20 21 22 22 21 21 21 22 22 23 23 23 22 22 22 22 23 23 23 23 23 23 23 23 23 23 22 23 23 23 25 26 26 26 27 28 29 32 35 36
20 20 21 22 23 24 24 23 23 23 23 24 25 25 25 25 25 25 24 23 22 22 22 22 22 22 23 23 22 22 22 23 24 26 27 27 28 29 31 34 36 37
22 22 23 24 25 26 26 26 26 25 25 26 27 28 29 29 29 29 29 28 27 26 26 25 25 25 24 23 23 23 24 24 25 26 27 28 28 30 33 35 36 37
24 24 25 26 27 28 28 29 29 29 29 29 30 31 32 32 32 33 32 32 31 30 30 29 28 28 27 26 25 25 26 26 27 28 28 29 30 31 33 35 35 36

ECMWFNIL_700_spd_036.txt.gz
Wind_Speed
11 9 6 4 5 6 5 2 2 3 4 5 6 7 7 7 7 7 8 8 8 8 7 7 7 6 6 6 6 5 5 4 3 2 1 0 1 1 1 1 1 2
14 12 9 6 5 6 6 4 2 1 2 4 5 5 6 6 6 6 6 6 6 6 7 7 7 7 7 7 6 6 6 6 5 4 3 3 2 2 2 1 1 1
18 16 12 9 8 7 7 6 4 4 2 1 2 3 4 5 5 5 5 4 4 4 5 5 6 6 6 6 6 5 6 6 5 5 4 4 4 3 4 4 3 3
22 19 14 13 12 10 9 8 7 6 5 4 2 2 2 3 3 4 4 5 4 3 3 2 2 3 4 4 5 5 5 6 6 6 6 6 5 5 5 5 5 5
25 22 18 17 15 13 12 11 9 9 7 6 5 4 3 3 3 3 3 4 5 6 5 4 2 1 1 1 2 2 3 4 5 6 6 5 6 6 6 6 6 6
28 26 23 21 19 16 14 13 12 11 10 9 8 6 6 5 5 5 5 5 6 8 8 8 8 7 5 4 3 2 1 1 2 3 3 3 4 4 4 4 4 4
30 30 28 25 21 17 15 15 14 13 12 11 10 9 8 8 8 7 7 8 9 9 9 10 11 12 11 9 8 7 6 4 3 3 2 1 1 2 1 1 2 2
31 32 31 28 23 19 18 17 16 15 14 12 11 10 10 11 12 11 11 11 11 11 11 12 13 13 13 13 13 11 10 9 8 7 6 5 5 4 4 4 4 4
29 32 31 29 26 23 22 20 20 19 16 13 12 13 13 13 15 16 17 16 15 16 16 15 15 15 14 15 15 15 14 14 13 12 10 9 8 8 7 7 7 7
23 28 30 29 28 27 25 23 24 23 19 17 19 19 17 16 18 19 19 20 21 21 21 20 18 17 16 16 16 17 17 16 15 13 13 12 11 10 10 10 9 9
20 26 28 26 25 25 23 22 25 24 23 24 24 21 20 20 20 20 21 22 23 24 24 22 20 19 19 20 21 21 19 18 17 15 14 14 13 12 12 13 12 12
15 18 20 17 17 18 18 21 25 26 27 27 23 19 19 21 21 21 22 22 23 23 23 21 19 18 19 20 23 26 24 21 19 18 16 16 15 15 15 15 15 15
12 13 14 14 14 15 16 20 24 26 27 25 20 17 18 19 20 21 20 20 19 18 16 14 15 15 15 14 15 20 24 25 24 22 20 19 19 18 18 18 18 18
10 12 13 13 12 12 13 15 16 18 19 18 15 14 16 18 19 19 18 17 17 15 13 13 13 14 13 12 11 11 15 21 24 24 24 24 21 20 19 19 20 20
7 9 10 9 8 8 9 9 9 10 10 10 10 11 14 15 16 16 16 15 15 14 13 14 14 15 15 15 15 12 11 14 16 18 22 24 23 22 22 23 23 23
7 8 9 9 9 9 8 9 9 10 10 10 11 11 13 14 14 15 15 15 16 15 15 15 16 18 19 18 19 18 16 15 15 16 18 21 23 24 25 26 26 25
8 10 10 11 11 11 11 12 13 13 14 14 14 15 16 16 16 16 17 18 18 18 19 19 20 21 22 22 21 20 19 19 19 20 21 22 24 25 26 27 27 27
9 10 11 12 12 13 13 14 14 15 16 17 18 18 19 19 19 19 19 20 20 21 21 22 22 23 23 23 23 23 23 23 23 24 24 25 26 27 27 28 28 28
11 12 12 13 13 14 15 15 17 18 18 19 20 20 20 21 21 21 21 21 22 22 23 23 23 24 24 24 24 24 25 26 26 26 26 27 27 27 27 28 29 30
13 13 14 14 14 14 15 16 16 17 18 19 20 20 21 21 21 21 22 22 22 22 22 23 23 23 23 23 23 24 26 26 26 26 27 28 28 28 28 29 30 31
16 16 16 16 16 15 15 15 15 15 16 17 18 18 19 20 21 22 22 22 22 22 21 21 21 21 21 21 22 23 25 25 25 25 25 27 27 28 28 29 30 30
18 17 17 18 18 18 18 17 16 16 16 17 17 18 18 19 20 21 21 21 21 22 22 22 21 20 20 20 22 23 24 25 25 25 25 26 26 27 28 28 29 29
18 18 19 19 20 20 20 19 19 18 18 19 19 19 20 21 21 22 21 21 21 22 22 22 21 21 20 20 21 22 24 25 25 26 27 27 28 28 28 27 27 27
21 21 21 21 21 21 21 21 21 21 21 22 22 22 23 24 24 24 23 23 23 23 23 23 22 22 22 22 22 22 23 24 24 25 26 27 28 28 28 27 27 27
24 23 23 23 22 22 22 22 22 22 23 24 25 25 26 26 27 27 26 25 25 24 25 25 25 25 26 26 25 25 25 25 25 25 26 27 28 28 29 29 29 29
26 25 25 25 24 24 23 23 23 24 24 24 25 26 27 28 28 29 29 29 28 28 28 28 28 28 28 28 28 28 27 27 26 27 28 29 29 30 30 31 31 32

ECMWFNIL_700_spd_042.txt.gz
Wind_Speed
18 16 14 13 11 10 5 3 4 3 0 2 4 6 7 9 9 9 10 10 10 11 11 12 12 12 11 10 9 8 6 5 4 4 3 3 4 4 4 5 5 5
21 19 18 17 14 12 7 5 5 6 2 2 4 5 5 6 8 9 10 10 11 11 11 11 12 12 12 12 12 11 9 8 7 6 4 3 3 2 2 3 4 5
23 22 20 18 16 15 11 7 8 8 5 3 3 3 3 3 5 6 7 8 9 9 9 10 10 10 11 11 11 11 11 10 9 8 7 5 4 3 2 2 2 2
24 24 22 19 19 19 15 10 10 9 7 5 5 3 2 1 1 2 4 5 6 6 6 7 8 8 9 9 9 9 9 10 10 9 9 8 7 5 4 3 2 2
23 24 24 23 22 21 17 12 12 12 10 9 8 6 5 4 3 2 0 1 2 3 4 4 5 5 6 6 6 6 6 7 7 8 8 8 8 7 6 5 4 3
24 24 24 24 23 21 18 14 15 15 14 14 13 10 8 8 6 6 4 3 2 1 2 3 3 4 5 5 5 5 4 4 4 5 6 6 6 6 6 5 5 4
23 23 24 25 24 23 20 18 18 18 17 18 18 15 13 11 10 10 9 7 5 4 3 3 4 4 5 6 6 7 6 6 5 5 5 5 6 6 7 7 7 6
19 22 24 25 25 25 23 21 21 22 21 21 21 19 16 15 14 14 13 10 9 8 7 7 8 8 8 8 8 8 8 8 8 8 8 8 8 9 9 10 10 10
16 19 22 24 26 26 24 23 24 24 24 24 23 20 19 18 18 18 16 14 14 12 10 10 11 12 12 12 11 10 9 10 11 11 11 11 11 11 12 13 13 13
14 17 20 23 26 27 26 26 25 25 25 26 24 22 22 23 22 21 20 18 16 13 12 12 13 14 15 14 14 14 13 13 14 13 13 13 14 14 14 15 16 16
13 15 18 22 26 28 28 28 27 26 26 27 27 25 26 26 25 25 23 20 17 16 15 15 17 17 16 15 15 18 19 18 17 16 16 16 16 17 17 17 18 18
12 12 15 21 26 28 30 29 27 26 27 28 29 29 29 29 28 28 26 22 20 20 19 19 19 17 16 15 16 18 20 20 19 19 19 20 20 20 19 19 19 19
13 12 13 18 24 28 28 26 25 25 27 29 31 32 33 31 29 29 27 22 20 21 20 19 17 15 14 15 16 17 17 18 18 18 19 20 21 22 23 23 21 21
16 15 15 16 22 26 25 23 24 25 27 29 30 32 33 30 25 25 24 21 19 20 19 18 16 15 14 14 16 17 16 16 17 16 17 18 18 19 22 25 25 25
17 17 17 18 21 23 22 22 23 23 24 26 27 27 27 25 23 21 20 19 19 17 16 16 15 14 14 15 16 17 17 17 17 16 17 18 18 17 19 21 25 27
16 17 18 20 21 20 20 20 20 20 20 20 19 18 18 18 17 16 16 16 15 13 12 12 13 13 14 15 17 18 18 18 17 17 18 19 19 19 19 20 22 26
16 17 18 20 21 20 19 19 19 18 17 15 14 13 13 13 13 14 14 14 12 12 12 13 14 15 16 18 19 19 19 19 19 19 21 21 22 22 22 22 22 23
16 17 18 19 20 20 20 19 19 17 16 15 15 15 15 15 16 16 16 15 15 15 16 17 18 19 20 21 22 22 22 22 22 23 24 25 25 25 26 26 26 26
17 18 19 20 20 20 20 20 19 19 19 19 19 20 20 19 19 19 19 19 19 19 20 21 22 23 24 24 24 25 25 25 26 26 27 28 28 29 29 29 29 29
19 20 21 22 23 23 23 22 22 22 22 23 23 23 23 22 22 21 21 21 22 22 23 24 25 25 26 26 26 26 27 27 27 28 29 29 30 31 31 31 31 32
22 22 23 23 23 24 24 23 23 23 23 23 23 23 23 23 23 23 23 23 23 24 24 25 25 25 26 26 26 27 27 28 28 29 29 30 30 31 31 31 32 32
24 23 23 23 23 23 23 23 23 23 23 22 23 23 23 24 24 24 25 25 25 25 25 25 25 25 25 26 26 26 27 28 28 29 29 30 30 30 31 31 31 31
24 23 22 23 23 23 23 23 23 23 23 24 24 25 25 25 26 26 26 26 26 25 25 25 25 26 26 26 27 27 27 28 28 29 29 29 30 30 30 31 31 31
22 22 22 22 23 24 24 24 24 24 25 26 27 27 28 28 27 27 27 27 27 26 26 26 26 27 27 28 28 29 29 29 29 30 30 30 30 31 31 32 32 32
21 22 23 23 24 25 24 24 24 25 26 28 29 29 29 29 28 28 28 27 27 27 27 27 27 28 29 29 30 31 31 31 32 32 32 32 32 33 33 34 34 34
23 24 25 25 25 24 24 24 24 25 27 29 30 31 31 30 30 30 29 29 29 28 29 29 29 29 29 30 30 30 30 31 31 32 33 33 34 34 35 35 35 36

ECMWFNIL_700_spd_045.txt.gz
Wind_Speed
15 14 15 16 16 13 11 10 7 4 3 2 2 5 7 8 8 9 9 10 11 11 12 12 12 12 12 11 11 10 10 10 10 9 8 7 6 5 5 4 4 4
17 16 17 17 16 14 12 11 9 7 5 4 4 6 7 7 8 8 9 10 10 11 11 11 11 11 11 12 12 11 11 11 11 10 9 9 8 7 6 6 5 4
19 19 18 17 15 15 14 12 10 9 7 6 5 5 5 5 5 6 6 7 8 8 9 9 9 9 9 10 10 11 11 11 12 11 10 10 10 9 8 8 7 6
23 22 20 19 17 16 16 14 12 11 9 9 7 6 5 4 4 4 4 4 5 5 5 5 5 5 6 6 7 8 9 9 10 10 9 9 9 8 8 8 7 7
24 25 25 24 21 19 17 16 14 13 12 12 9 8 7 6 6 5 4 4 3 3 3 2 2 2 3 3 3 4 4 5 5 5 5 6 5 5 5 5 5 5
23 25 27 26 24 21 19 18 17 15 14 14 13 12 11 10 8 8 7 6 5 4 2 1 0 1 2 2 3 3 2 2 1 1 1 1 2 2 3 4 4 4
23 24 25 25 24 23 22 21 20 18 15 15 15 15 15 13 11 10 10 9 8 7 5 4 3 3 3 3 3 4 5 5 5 5 4 4 4 4 5 5 5 6
19 22 25 26 25 24 24 23 21 20 18 16 17 18 18 17 16 15 14 13 12 10 9 8 7 7 8 7 7 7 8 8 8 8 9 8 8 8 9 9 9 9
14 18 22 25 26 25 25 24 22 21 19 19 19 19 20 20 19 18 18 17 16 13 12 12 11 11 11 10 10 10 10 10 10 11 12 12 11 11 12 12 12 12
11 14 18 23 25 26 26 25 23 22 21 21 20 21 21 21 21 21 21 21 19 16 15 15 15 13 13 12 12 13 13 13 13 13 14 15 14 14 14 14 14 14
10 13 17 21 24 26 26 26 24 23 23 22 20 21 22 23 23 24 24 24 23 19 18 18 18 17 16 15 14 14 14 14 14 15 16 17 18 18 18 17 16 16
12 15 16 17 20 23 25 27 26 24 24 23 23 22 23 23 25 25 25 25 25 23 21 22 22 21 21 20 18 15 14 14 14 15 16 18 19 20 21 21 21 20
14 16 16 16 18 20 23 26 27 26 25 25 25 25 24 24 25 26 26 26 27 27 26 26 25 23 21 21 19 16 14 13 14 15 16 17 17 18 20 21 20 20
16 17 16 16 17 18 20 24 26 26 26 27 26 25 25 25 25 25 26 26 28 28 27 24 23 21 20 19 18 16 15 14 14 15 16 16 16 17 18 18 18 17
16 17 16 15 14 14 16 20 23 25 26 26 26 25 24 24 24 25 25 25 26 25 23 21 21 21 20 18 16 16 15 15 15 16 17 17 17 18 19 19 20 19
15 16 16 16 15 14 15 17 19 22 24 25 25 23 21 21 21 21 20 19 20 20 20 20 19 19 17 16 16 16 16 16 16 16 17 18 19 19 20 21 21 19
15 16 16 16 16 15 15 17 18 19 21 22 22 21 19 18 17 14 12 13 14 16 16 16 16 15 15 15 16 16 17 17 17 18 18 19 20 21 22 23 23 20
16 16 16 17 17 16 16 17 18 18 19 20 19 19 17 16 14 12 11 12 13 14 15 15 15 16 16 16 17 18 18 19 20 21 22 22 23 23 24 25 26 25
16 17 17 17 18 18 17 17 18 18 19 18 18 18 17 16 15 15 15 15 15 16 17 17 18 18 19 19 20 21 21 22 23 24 24 25 25 26 26 27 28 28
17 18 18 18 18 18 19 19 19 19 19 19 18 18 18 18 18 18 18 18 18 19 20 20 20 21 21 22 23 24 24 25 26 26 26 27 27 27 28 28 28 28
19 19 19 18 18 18 19 19 19 19 19 19 19 19 20 20 20 20 19 19 20 20 21 21 21 22 22 23 24 25 26 26 27 27 28 28 28 28 28 28 29 29
22 22 22 21 20 20 19 19 19 19 19 20 20 21 21 21 20 20 20 21 21 21 22 22 23 23 24 25 26 26 27 27 27 28 28 28 28 29 29 29 30 30
25 26 25 23 22 21 20 19 19 19 19 19 20 20 20 21 21 21 21 21 22 22 23 23 24 25 26 26 27 27 28 28 28 28 28 27 28 28 29 29 30 31
26 28 28 26 24 23 21 20 19 18 18 18 19 20 20 21 22 22 22 23 23 23 24 25 25 26 27 27 28 28 28 29 29 28 28 28 28 28 29 30 31 31
20 21 22 23 24 25 25 25 23 21 19 19 20 21 21 22 23 24 24 24 25 25 26 26 27 27 28 28 29 29 30 30 30 29 29 29 29 29 29 29 30 31
17 17 18 18 18 20 23 27 28 27 25 24 24 24 24 24 25 26 26 27 27 27 27 28 29 29 30 30 30 31 31 31 31 31 31 30 30 30 30 30 31 32

ECMWFNIL_700_spd_048.txt.gz
Wind_Speed
17 13 12 11 12 12 12 11 11 12 13 9 5 3 2 3 5 6 6 6 7 7 8 8 8 8 8 8 7 7 7 7 7 7 7 7 6 6 6 5 5 5
19 15 14 13 13 14 13 12 12 14 13 9 5 3 4 5 6 7 6 6 7 7 8 8 8 8 8 8 8 8 8 8 8 8 7 7 7 7 6 6 6 5
20 18 16 15 15 14 13 12 13 12 11 10 9 7 6 6 6 7 7 6 5 6 7 7 8 8 8 8 7 7 7 7 8 8 7 7 7 7 7 6 6 6
21 20 19 17 17 16 14 14 13 12 12 12 10 10 8 6 7 6 5 5 4 5 5 5 6 6 5 6 5 6 6 6 6 7 7 7 7 7 7 7 6 6
22 22 21 20 19 17 15 15 15 14 14 13 10 11 10 8 7 6 5 4 3 3 4 4 4 3 3 3 3 3 3 3 3 4 4 4 5 5 5 5 5 5
24 24 23 22 21 19 17 17 17 16 16 15 12 12 12 11 9 7 6 5 5 5 5 4 4 3 2 2 1 1 0 0 0 1 1 1 2 2 2 2 3 3
27 26 25 24 23 22 21 20 19 18 18 17 13 12 13 13 12 10 9 9 8 7 7 7 6 6 5 5 4 4 4 3 3 4 4 4 4 4 4 3 3 3
29 28 26 25 25 24 24 23 22 21 20 18 15 13 14 15 14 14 13 13 12 11 10 9 9 9 9 8 8 8 8 8 8 8 7 7 6 7 7 7 7 7
29 28 27 26 26 25 25 24 23 22 21 21 18 15 15 16 16 16 15 16 15 15 14 13 12 12 12 12 12 11 11 11 11 11 11 10 9 9 9 9 10 9
26 27 27 27 27 27 26 25 25 24 23 21 19 17 16 17 17 17 17 17 17 18 17 16 15 15 15 15 15 15 14 13 14 14 15 14 13 13 12 12 11 11
20 21 22 23 26 27 27 27 27 26 25 22 20 19 19 19 19 18 18 18 19 20 19 19 19 19 19 19 18 18 18 17 16 17 16 16 16 15 15 15 15 14
15 16 18 21 24 25 25 26 27 26 25 23 21 21 21 21 20 19 19 19 20 21 20 20 21 21 21 21 21 22 22 22 21 19 18 17 16 14 14 15 16 16
14 16 18 18 19 21 22 25 26 26 26 25 23 22 22 22 21 20 21 22 22 23 23 22 22 22 22 22 24 25 24 23 22 20 18 18 16 14 13 13 13 14
15 17 17 15 16 19 21 23 25 27 27 26 26 25 24 24 23 23 23 23 25 25 25 25 25 24 24 23 23 23 23 22 20 18 18 17 17 16 14 12 12 13
15 16 15 15 18 21 22 21 23 26 28 29 28 27 26 25 24 24 25 26 27 28 27 27 27 25 24 22 21 20 21 20 19 18 17 17 17 17 14 13 14 15
17 17 16 16 18 20 20 19 21 24 27 29 27 27 27 26 24 24 26 27 27 27 27 27 26 24 22 20 19 19 19 18 17 17 17 16 16 16 15 14 15 16
18 18 17 16 16 16 17 19 20 21 24 26 24 24 26 24 22 24 27 27 25 24 22 20 20 19 19 18 17 16 16 16 16 16 16 15 14 14 14 14 15 15
19 18 18 17 18 17 17 18 19 20 22 23 22 22 23 23 23 25 25 23 21 19 16 14 14 15 15 15 14 14 14 15 16 16 16 15 16 16 16 16 17 18
20 18 17 17 18 18 18 17 18 18 20 21 21 21 21 22 22 21 20 18 16 15 13 13 13 13 14 14 14 15 15 15 16 16 16 17 18 19 20 20 21 21
19 18 17 17 16 16 17 17 16 16 18 19 19 19 20 20 18 17 17 16 15 15 15 15 15 15 15 16 16 16 16 16 17 18 18 20 20 21 22 23 23 24
18 18 18 18 17 16 15 14 13 13 15 16 16 17 18 17 15 15 17 17 16 17 17 17 17 16 16 16 16 16 17 17 18 19 20 21 22 22 23 23 23 24
19 19 19 20 19 18 18 17 16 15 15 15 15 15 15 14 14 16 17 17 17 17 17 17 17 17 17 17 17 17 17 18 19 19 20 20 21 22 22 23 23 23
21 21 21 21 22 22 22 22 22 22 22 20 19 19 18 17 17 18 17 17 17 17 17 17 16 17 17 18 18 18 18 19 19 20 20 21 21 22 23 23 24 24
21 21 22 23 24 26 27 26 25 24 24 23 21 21 21 20 19 18 18 18 17 17 17 17 18 18 19 19 20 20 20 21 22 23 23 23 23 24 24 25 25 26
22 23 23 24 25 27 29 30 29 28 28 27 24 22 21 21 20 20 20 19 19 18 18 19 20 21 21 22 22 22 22 23 24 26 26 26 26 27 27 27 28 28
24 24 25 24 25 25 26 27 28 29 31 31 29 25 23 22 22 21 21 20 20 20 20 20 21 23 24 25 25 25 25 25 26 28 29 29 29 29 30 30 30 31